DUZEAR1 KOGB-KFLO

Flight info

Callsign DUZEAR1
Flight time 0h 27m
Altitude 7000
Route KOGB/23 N0249F070 DCT HILMI DCT ZEPKO DCT LYNAM DCT WUMIS DCT AGOZE DCT GAUGH DCT OXBIP DCT IQESY DCT KFLO/19
Aircraft PC12/L-SDE2FGIRWY/SB1

Departure

Time 2026-05-05 23:22
Airport Orangeburg Municipal Airport (KOGB)

Arrival

Time 2026-05-05 23:49
Airport Florence Regional Airport (KFLO)
Time Latitude Longitude Altitude Speed Heading
2026-05-05 23:16 33.46564 -80.85605 200 ft 0 kts 69°
2026-05-05 23:21 33.46565 -80.85601 200 ft 4 kts 69°
2026-05-05 23:21 33.46590 -80.85519 200 ft 15 kts 73°
2026-05-05 23:21 33.46555 -80.85414 207 ft 11 kts 163°
2026-05-05 23:22 33.46423 -80.85539 203 ft 52 kts 222°
2026-05-05 23:22 33.46001 -80.86001 302 ft 102 kts 223°
2026-05-05 23:22 33.45939 -80.86940 683 ft 146 kts 291°
2026-05-05 23:22 33.46803 -80.87631 1308 ft 165 kts 353°
2026-05-05 23:23 33.48019 -80.87733 1876 ft 177 kts
2026-05-05 23:23 33.49152 -80.87654 2861 ft 157 kts
2026-05-05 23:23 33.50238 -80.87554 3749 ft 160 kts
2026-05-05 23:23 33.51289 -80.87199 4529 ft 160 kts 33°
2026-05-05 23:24 33.52188 -80.86419 5346 ft 161 kts 38°
2026-05-05 23:24 33.53118 -80.85622 6153 ft 164 kts 37°
2026-05-05 23:24 33.54073 -80.84801 6757 ft 176 kts 37°
2026-05-05 23:24 33.55065 -80.83941 6997 ft 188 kts 37°
2026-05-05 23:25 33.56255 -80.82905 7016 ft 232 kts 37°
2026-05-05 23:25 33.57615 -80.81724 7013 ft 253 kts 37°
2026-05-05 23:25 33.59060 -80.80472 7007 ft 259 kts 37°
2026-05-05 23:25 33.60553 -80.79177 7002 ft 262 kts 37°
2026-05-05 23:26 33.62016 -80.77907 6999 ft 264 kts 36°
2026-05-05 23:26 33.63519 -80.76603 7000 ft 263 kts 37°
2026-05-05 23:26 33.64982 -80.75328 6997 ft 263 kts 37°
2026-05-05 23:26 33.66483 -80.74022 6999 ft 264 kts 37°
2026-05-05 23:27 33.67946 -80.72749 6997 ft 264 kts 37°
2026-05-05 23:27 33.69431 -80.71455 6986 ft 264 kts 37°
2026-05-05 23:27 33.70919 -80.70161 6987 ft 264 kts 37°
2026-05-05 23:27 33.72401 -80.68868 6991 ft 264 kts 37°
2026-05-05 23:28 33.73884 -80.67575 6991 ft 264 kts 37°
2026-05-05 23:28 33.75373 -80.66278 7065 ft 260 kts 37°
2026-05-05 23:28 33.76771 -80.65051 7802 ft 237 kts 39°
2026-05-05 23:28 33.77545 -80.64160 8498 ft 219 kts 51°
2026-05-05 23:29 33.77777 -80.63840 8764 ft 213 kts 51°
2026-05-05 23:29 33.78706 -80.62592 9993 ft 188 kts 50°
2026-05-05 23:29 33.79578 -80.61444 10853 ft 186 kts 49°
2026-05-05 23:29 33.80384 -80.60369 10963 ft 184 kts 49°
2026-05-05 23:30 33.81334 -80.59094 10990 ft 224 kts 49°
2026-05-05 23:30 33.82456 -80.57593 10993 ft 255 kts 49°
2026-05-05 23:30 33.83678 -80.55962 10992 ft 269 kts 49°
2026-05-05 23:30 33.84938 -80.54278 10984 ft 274 kts 49°
2026-05-05 23:31 33.86224 -80.52557 10981 ft 276 kts 49°
2026-05-05 23:31 33.87505 -80.50842 10983 ft 277 kts 49°
2026-05-05 23:31 33.88797 -80.49113 10978 ft 277 kts 49°
2026-05-05 23:31 33.90084 -80.47386 10979 ft 277 kts 49°
2026-05-05 23:32 33.91371 -80.45661 10983 ft 277 kts 49°
2026-05-05 23:32 33.92643 -80.43961 10981 ft 276 kts 47°
2026-05-05 23:32 33.94054 -80.42348 10982 ft 277 kts 43°
2026-05-05 23:32 33.95469 -80.40777 10982 ft 277 kts 43°
2026-05-05 23:33 33.96876 -80.39193 10986 ft 277 kts 44°
2026-05-05 23:33 33.98279 -80.37604 10994 ft 277 kts 43°
2026-05-05 23:33 33.99684 -80.36021 11004 ft 277 kts 43°
2026-05-05 23:33 34.01075 -80.34458 11004 ft 278 kts 43°
2026-05-05 23:34 34.02488 -80.32866 11004 ft 278 kts 43°
2026-05-05 23:34 34.03919 -80.31250 11004 ft 278 kts 44°
2026-05-05 23:34 34.05333 -80.29659 11005 ft 278 kts 43°
2026-05-05 23:34 34.06727 -80.28087 11004 ft 278 kts 44°
2026-05-05 23:35 34.08136 -80.26492 11004 ft 279 kts 44°
2026-05-05 23:35 34.09550 -80.24894 11004 ft 279 kts 44°
2026-05-05 23:35 34.10506 -80.23812 11004 ft 278 kts 44°
2026-05-05 23:35 34.11240 -80.22984 11006 ft 278 kts 44°
2026-05-05 23:36 34.12649 -80.21390 11008 ft 278 kts 44°
2026-05-05 23:36 34.14056 -80.19798 11007 ft 278 kts 44°
2026-05-05 23:36 34.15456 -80.18183 11007 ft 278 kts 45°
2026-05-05 23:36 34.16833 -80.16557 11009 ft 278 kts 45°
2026-05-05 23:37 34.18225 -80.14927 11008 ft 278 kts 44°
2026-05-05 23:37 34.19623 -80.13299 10853 ft 282 kts 44°
2026-05-05 23:37 34.21050 -80.11636 10492 ft 287 kts 45°
2026-05-05 23:37 34.22490 -80.09955 10100 ft 288 kts 45°
2026-05-05 23:38 34.23927 -80.08273 9711 ft 287 kts 45°
2026-05-05 23:38 34.25363 -80.06598 9331 ft 286 kts 45°
2026-05-05 23:38 34.26782 -80.04936 8966 ft 282 kts 46°
2026-05-05 23:38 34.28180 -80.03296 8604 ft 280 kts 46°
2026-05-05 23:39 34.29576 -80.01664 8239 ft 278 kts 45°
2026-05-05 23:39 34.30963 -80.00034 7874 ft 277 kts 46°
2026-05-05 23:39 34.32185 -79.98258 7506 ft 274 kts 54°
2026-05-05 23:39 34.33355 -79.96439 7158 ft 273 kts 53°
2026-05-05 23:40 34.34531 -79.94637 6801 ft 273 kts 53°
2026-05-05 23:40 34.35705 -79.92848 6445 ft 269 kts 53°
2026-05-05 23:40 34.36769 -79.91018 6106 ft 264 kts 64°
2026-05-05 23:40 34.37383 -79.88931 5757 ft 263 kts 81°
2026-05-05 23:41 34.37515 -79.86832 5439 ft 225 kts 95°
2026-05-05 23:41 34.37471 -79.85042 5254 ft 204 kts 96°
2026-05-05 23:41 34.37442 -79.83392 5068 ft 180 kts 96°
2026-05-05 23:41 34.37413 -79.81944 4937 ft 178 kts 97°
2026-05-05 23:42 34.37381 -79.80548 4743 ft 169 kts 97°
2026-05-05 23:42 34.37351 -79.79149 4513 ft 162 kts 97°
2026-05-05 23:42 34.37321 -79.77771 4297 ft 165 kts 97°
2026-05-05 23:42 34.37293 -79.76405 4080 ft 159 kts 97°
2026-05-05 23:43 34.37257 -79.75055 3867 ft 161 kts 101°
2026-05-05 23:43 34.36931 -79.73837 3653 ft 150 kts 124°
2026-05-05 23:43 34.36303 -79.72873 3459 ft 145 kts 142°
2026-05-05 23:43 34.35459 -79.72227 3267 ft 142 kts 160°
2026-05-05 23:44 34.34507 -79.71957 3080 ft 140 kts 176°
2026-05-05 23:44 34.33535 -79.71991 2892 ft 140 kts 181°
2026-05-05 23:44 34.32655 -79.72014 2703 ft 111 kts 181°
2026-05-05 23:44 34.31870 -79.72036 2562 ft 117 kts 181°
2026-05-05 23:45 34.31107 -79.72060 2420 ft 101 kts 181°
2026-05-05 23:45 34.30364 -79.72082 2289 ft 114 kts 181°
2026-05-05 23:45 34.29571 -79.72106 2135 ft 111 kts 181°
2026-05-05 23:45 34.28809 -79.72128 2000 ft 113 kts 181°
2026-05-05 23:46 34.28044 -79.72153 1842 ft 102 kts 181°
2026-05-05 23:46 34.27352 -79.72175 1709 ft 102 kts 181°
2026-05-05 23:46 34.26668 -79.72196 1571 ft 94 kts 181°
2026-05-05 23:46 34.26018 -79.72217 1450 ft 94 kts 181°
2026-05-05 23:47 34.25360 -79.72236 1334 ft 96 kts 181°
2026-05-05 23:47 34.24692 -79.72259 1207 ft 95 kts 181°
2026-05-05 23:47 34.24034 -79.72278 1085 ft 94 kts 181°
2026-05-05 23:47 34.23385 -79.72298 958 ft 93 kts 181°
2026-05-05 23:48 34.22758 -79.72319 834 ft 87 kts 181°
2026-05-05 23:48 34.22160 -79.72336 725 ft 87 kts 181°
2026-05-05 23:48 34.21540 -79.72357 611 ft 90 kts 181°
2026-05-05 23:48 34.20915 -79.72377 490 ft 90 kts 181°
2026-05-05 23:49 34.20287 -79.72396 398 ft 89 kts 181°
2026-05-05 23:49 34.19684 -79.72415 287 ft 86 kts 181°
2026-05-05 23:49 34.19094 -79.72434 165 ft 81 kts 181°
2026-05-05 23:49 34.18626 -79.72450 152 ft 39 kts 181°
2026-05-05 23:50 34.18450 -79.72454 153 ft 29 kts 181°
2026-05-05 23:50 34.18283 -79.72460 152 ft 20 kts 181°
2026-05-05 23:50 34.18181 -79.72513 152 ft 18 kts 267°
2026-05-05 23:50 34.18248 -79.72593 152 ft 22 kts
2026-05-05 23:51 34.18416 -79.72588 152 ft 22 kts
2026-05-05 23:51 34.18608 -79.72581 154 ft 33 kts
2026-05-05 23:51 34.18872 -79.72573 152 ft 26 kts
2026-05-05 23:51 34.19076 -79.72567 152 ft 22 kts
2026-05-05 23:52 34.19234 -79.72562 152 ft 11 kts
2026-05-05 23:52 34.19265 -79.72674 152 ft 18 kts 269°
2026-05-05 23:52 34.19209 -79.72745 152 ft 15 kts 220°
2026-05-05 23:52 34.19165 -79.72848 152 ft 13 kts 297°
2026-05-05 23:53 34.19222 -79.72928 152 ft 14 kts 343°
2026-05-05 23:53 34.19280 -79.72953 152 ft 14 kts 286°
2026-05-05 23:53 34.19281 -79.73024 152 ft 0 kts 271°
2026-05-05 23:56 34.19282 -79.73065 152 ft 9 kts 271°
2026-05-05 23:56 34.19283 -79.73155 152 ft 7 kts 270°
2026-05-05 23:56 34.19299 -79.73193 152 ft 9 kts 331°
2026-05-05 23:57 34.19325 -79.73190 152 ft 2 kts 78°
2026-05-05 23:57 34.19325 -79.73183 152 ft 4 kts 94°
2026-05-05 23:57 34.19325 -79.73176 152 ft 0 kts 90°